TimeEDT,TemperatureF,Dew PointF,Humidity,Sea Level PressureIn,VisibilityMPH,Wind Direction,Wind SpeedMPH,Gust SpeedMPH,PrecipitationIn,Events,Conditions,WindDirDegrees,DateUTC
12:30 AM,68.0,64.4,88,29.99,7.0,North,13.8,21.9,N/A,,Overcast,360,2013-06-26 04:30:00
12:37 AM,68.0,64.4,88,29.99,8.0,North,9.2,20.7,0.00,Rain,Light Rain,360,2013-06-26 04:37:00
12:53 AM,66.9,64.9,93,29.98,1.8,NW,9.2,16.1,0.14,Rain,Heavy Rain,320,2013-06-26 04:53:00
12:56 AM,66.2,64.4,94,29.99,1.2,NNW,11.5,18.4,0.09,Rain-Thunderstorm,Heavy Thunderstorms and Rain,340,2013-06-26 04:56:00
1:00 AM,66.2,64.4,94,29.98,0.8,NNW,10.4,21.9,0.19,Rain-Thunderstorm,Heavy Thunderstorms and Rain,340,2013-06-26 05:00:00
1:10 AM,66.2,66.2,100,29.99,1.0,Variable,3.5,-,0.41,Rain-Thunderstorm,Heavy Thunderstorms and Rain,0,2013-06-26 05:10:00
1:33 AM,66.2,64.4,94,30.00,2.0,WSW,4.6,-,0.57,Rain-Thunderstorm,Thunderstorms and Rain,250,2013-06-26 05:33:00
1:43 AM,66.2,64.4,94,29.98,3.0,Calm,Calm,-,0.60,Rain-Thunderstorm,Thunderstorms and Rain,0,2013-06-26 05:43:00
1:53 AM,66.0,64.9,96,29.96,4.0,Calm,Calm,-,0.61,Rain-Thunderstorm,Light Thunderstorms and Rain,0,2013-06-26 05:53:00
2:14 AM,66.2,64.4,94,29.97,1.8,Variable,3.5,-,0.06,Rain-Thunderstorm,Thunderstorms and Rain,0,2013-06-26 06:14:00
2:34 AM,66.2,64.4,94,29.98,3.0,Calm,Calm,-,0.11,Rain-Thunderstorm,Light Thunderstorms and Rain,0,2013-06-26 06:34:00
2:44 AM,66.2,66.2,100,29.98,1.8,Variable,3.5,-,0.17,Rain-Thunderstorm,Heavy Thunderstorms and Rain,0,2013-06-26 06:44:00
2:51 AM,66.2,66.2,100,29.99,2.0,SSW,5.8,-,0.18,Rain-Thunderstorm,Thunderstorms and Rain,200,2013-06-26 06:51:00
2:53 AM,66.9,66.0,97,29.98,2.5,South,5.8,-,0.19,Rain-Thunderstorm,Thunderstorms and Rain,190,2013-06-26 06:53:00
3:01 AM,66.2,66.2,100,29.98,2.5,SSE,5.8,-,0.03,Rain-Thunderstorm,Thunderstorms and Rain,160,2013-06-26 07:01:00
3:10 AM,66.2,66.2,100,29.96,2.0,SSE,8.1,-,0.05,Rain-Thunderstorm,Light Thunderstorms and Rain,160,2013-06-26 07:10:00
3:12 AM,66.2,66.2,100,29.96,1.8,SSE,6.9,-,0.05,Rain-Thunderstorm,Light Thunderstorms and Rain,150,2013-06-26 07:12:00
3:22 AM,66.2,66.2,100,29.96,1.8,SSE,4.6,-,0.07,Rain-Thunderstorm,Light Thunderstorms and Rain,150,2013-06-26 07:22:00
3:25 AM,66.2,66.2,100,29.97,2.5,SE,5.8,-,0.08,Rain-Thunderstorm,Thunderstorms and Rain,130,2013-06-26 07:25:00
3:53 AM,66.0,64.9,96,29.95,2.0,South,6.9,-,0.19,Rain-Thunderstorm,Thunderstorms and Rain,170,2013-06-26 07:53:00
4:08 AM,66.2,64.4,94,29.96,4.0,SSE,8.1,-,0.05,Rain-Thunderstorm,Thunderstorms and Rain,150,2013-06-26 08:08:00
4:22 AM,66.2,64.4,94,29.96,3.0,South,9.2,-,0.09,Rain-Thunderstorm,Thunderstorms and Rain,170,2013-06-26 08:22:00
4:42 AM,66.2,64.4,94,29.96,2.5,South,5.8,-,0.14,Rain-Thunderstorm,Light Thunderstorms and Rain,170,2013-06-26 08:42:00
4:53 AM,66.0,64.9,96,29.94,2.5,SSE,4.6,-,0.19,Rain-Thunderstorm,Thunderstorms and Rain,160,2013-06-26 08:53:00
4:57 AM,66.2,64.4,94,29.95,3.0,Calm,Calm,-,0.01,Rain-Thunderstorm,Thunderstorms and Rain,0,2013-06-26 08:57:00
5:04 AM,66.2,64.4,94,29.96,3.0,South,3.5,-,0.03,Rain-Thunderstorm,Thunderstorms and Rain,190,2013-06-26 09:04:00
5:21 AM,66.2,64.4,94,29.96,4.0,South,6.9,-,0.08,Rain-Thunderstorm,Thunderstorms and Rain,170,2013-06-26 09:21:00
5:53 AM,66.0,64.9,96,29.95,4.0,SSW,5.8,-,0.15,Rain-Thunderstorm,Light Thunderstorms and Rain,200,2013-06-26 09:53:00
6:04 AM,66.2,64.4,94,29.98,2.5,SSW,9.2,-,0.04,Rain-Thunderstorm,Thunderstorms and Rain,210,2013-06-26 10:04:00
6:16 AM,66.2,64.4,94,29.95,3.0,SSE,9.2,-,0.08,Rain-Thunderstorm,Light Thunderstorms and Rain,150,2013-06-26 10:16:00
6:21 AM,66.2,64.4,94,29.95,0.5,SE,9.2,-,0.08,Fog-Rain,Light Rain,140,2013-06-26 10:21:00
6:29 AM,66.2,64.4,94,29.96,0.5,South,9.2,-,0.10,Fog-Rain,Light Rain,180,2013-06-26 10:29:00
6:53 AM,66.0,64.9,96,29.89,0.5,SE,6.9,-,0.12,Fog,Fog,130,2013-06-26 10:53:00
7:02 AM,66.2,64.4,94,29.88,0.2,SE,8.1,-,N/A,Fog,Fog,130,2013-06-26 11:02:00
7:15 AM,66.2,64.4,94,29.91,1.0,South,10.4,-,N/A,,Overcast,180,2013-06-26 11:15:00
7:39 AM,66.2,64.4,94,29.91,5.0,South,8.1,-,N/A,,Overcast,180,2013-06-26 11:39:00
7:53 AM,66.9,66.0,97,29.91,7.0,South,9.2,-,N/A,,Mostly Cloudy,180,2013-06-26 11:53:00
8:08 AM,66.2,66.2,100,29.90,10.0,South,10.4,-,N/A,,Scattered Clouds,180,2013-06-26 12:08:00
8:53 AM,70.0,66.9,90,29.91,10.0,SSW,11.5,-,N/A,,Mostly Cloudy,210,2013-06-26 12:53:00
9:53 AM,73.0,66.9,81,29.91,10.0,SSW,10.4,-,N/A,,Mostly Cloudy,210,2013-06-26 13:53:00
10:53 AM,73.9,66.9,79,29.92,10.0,SW,11.5,-,N/A,,Mostly Cloudy,220,2013-06-26 14:53:00
11:29 AM,77.0,68.0,74,29.93,10.0,SW,11.5,17.3,N/A,,Overcast,230,2013-06-26 15:29:00
11:39 AM,77.0,68.0,74,29.92,10.0,Variable,6.9,18.4,N/A,,Mostly Cloudy,0,2013-06-26 15:39:00
11:53 AM,78.1,66.9,68,29.92,10.0,WSW,8.1,-,N/A,,Mostly Cloudy,250,2013-06-26 15:53:00
12:53 PM,77.0,66.0,69,29.93,10.0,West,10.4,-,N/A,,Mostly Cloudy,270,2013-06-26 16:53:00
1:53 PM,79.0,66.9,66,29.91,10.0,WNW,4.6,-,N/A,,Scattered Clouds,300,2013-06-26 17:53:00
2:53 PM,80.1,64.9,60,29.89,10.0,Variable,4.6,-,N/A,,Mostly Cloudy,0,2013-06-26 18:53:00
3:53 PM,80.1,66.0,62,29.88,10.0,WNW,4.6,-,N/A,,Scattered Clouds,290,2013-06-26 19:53:00
4:53 PM,81.0,64.9,58,29.87,10.0,WSW,6.9,-,N/A,,Mostly Cloudy,250,2013-06-26 20:53:00
5:53 PM,81.0,66.0,60,29.85,10.0,Variable,3.5,-,N/A,,Scattered Clouds,0,2013-06-26 21:53:00
6:53 PM,80.1,66.9,64,29.84,10.0,South,5.8,-,N/A,,Mostly Cloudy,180,2013-06-26 22:53:00
7:53 PM,78.1,66.9,68,29.85,10.0,South,8.1,-,N/A,,Scattered Clouds,180,2013-06-26 23:53:00
8:53 PM,75.9,68.0,76,29.86,10.0,SSW,8.1,-,N/A,,Clear,200,2013-06-27 00:53:00
9:53 PM,73.9,68.0,82,29.86,10.0,South,4.6,-,N/A,,Clear,180,2013-06-27 01:53:00
10:53 PM,73.0,68.0,84,29.85,10.0,South,5.8,-,N/A,,Clear,170,2013-06-27 02:53:00
11:53 PM,72.0,68.0,87,29.83,10.0,SE,4.6,-,N/A,,Clear,140,2013-06-27 03:53:00